Flag for U.S.A. Weather past 2 weeks in Oakland, California, U.S.A.

Now
63 °F

Overcast.


Feels Like: 63 °F
Forecast: 62 / 71 °F
Wind: 7 mph from Southwest

Location: Metro Oakland International Airport

Current Time: Aug 2, 2015 at 8:05:59 AM

Latest Report: Aug 2, 2015 at 6:53 AM


Visibility: 8 mi

Pressure: 29.96 "Hg

Humidity: 81%

Dew point: 57 °F

Location of OaklandLocation

Historic Weather in Oakland — Graph

°F

Oakland temperature yesterday

Maximum temperature yesterday: 74 °F (at 1:53 PM)
Minimum temperature yesterday: 63 °F (at 1:53 AM)
Average temperature yesterday: 68 °F

Past Weeks' High & Low Weather Summary

 TemperatureHumidityPressure
High86 °F (Jul 19, 2:53 PM)90% (Jul 21, 5:53 AM)30.13 "Hg (Jul 21, 5:53 AM)
Low56 °F (Jul 28, 5:53 AM)35% (Jul 19, 2:53 PM)29.83 "Hg (Jul 28, 4:53 PM)
Average67 °F70%29.97 "Hg
* Reported Jul 18 6:53 AM — Aug 2 6:53 AM, Oakland, Weather by CustomWeather, © 2015

Note: Actual official high and low records may vary slightly from our data, if they occured in-between our weather recording intervals... More about our weather records

Advertising

Oakland weather history for previous 24 hours

 ConditionsComfort  
Time TempWeatherWind HumidityBarometerVisibility
6:53 AM
Sun, Aug 2
63 °FOvercast.7 mph81%29.96 "Hg8 mi
5:53 AM63 °FOvercast.10 mph78%29.95 "Hg10 mi
4:53 AM63 °FOvercast.9 mph78%29.95 "Hg10 mi
3:53 AM64 °FOvercast.8 mph75%29.96 "Hg10 mi
2:53 AM64 °FPassing clouds.15 mph78%29.95 "Hg10 mi
1:53 AM64 °FPassing clouds.12 mph78%29.96 "Hg10 mi
12:53 AM65 °FOvercast.12 mph76%29.96 "Hg10 mi
11:53 PM
Sat, Aug 1
65 °FOvercast.10 mph78%29.97 "Hg10 mi
10:53 PM66 °FMostly cloudy.10 mph75%29.98 "Hg10 mi
9:53 PM66 °FOvercast.15 mph75%29.98 "Hg10 mi
8:53 PM67 °FPartly sunny.17 mph76%29.96 "Hg10 mi
7:53 PM68 °FPartly sunny.14 mph76%29.94 "Hg10 mi
6:53 PM71 °FScattered clouds.15 mph63%29.93 "Hg10 mi
5:53 PM73 °FPassing clouds.16 mph59%29.93 "Hg10 mi
4:53 PM73 °FPassing clouds.14 mph57%29.94 "Hg10 mi
3:53 PM74 °FPassing clouds.15 mph56%29.94 "Hg10 mi
2:53 PM74 °FPassing clouds.15 mph56%29.96 "Hg10 mi
1:53 PM74 °FPassing clouds.14 mph56%29.97 "Hg10 mi
12:53 PM73 °FPassing clouds.13 mph57%29.99 "Hg10 mi
11:53 AM71 °FPassing clouds.10 mph61%30.01 "Hg10 mi
10:53 AM70 °FScattered clouds.12 mph61%30.02 "Hg10 mi
9:53 AM68 °FBroken clouds.8 mph65%30.03 "Hg10 mi
8:53 AM67 °FBroken clouds.12 mph68%30.03 "Hg10 mi
Weather by CustomWeather, © 2015

See weather overviewHow to use our weather pages